Location: Monteux
(44.0348°N, 4.9972°E)
Time: 17:45:14
(UTC+00:00)

Lacrosse 5 rocket - Pass Details

Date: 30 November 2020
Orbit: 461 x 634 km, 57.0° (Epoch: 23 January)

Event Time Altitude Azimuth Distance (km) Brightness Sun altitude
Rises 18:27:57 0° 280° (W) 2,509 5.9 -25.3°
Reaches altitude 10° 18:30:50 10° 304° (NW) 1,619 4.3 -25.9°
Enters shadow 18:32:23 15° 329° (NNW) 1,359 3.6 -26.1°
